Location: Recife
(8.0585°S, 34.8848°W)
Time: 22:37:39
(UTC-03:00)

Vanguard 1 Rocket - Pass Details

Date: 21 April 2026
Orbit: 655 x 4212 km, 34.3° (Epoch: 12 May)

Event Time Altitude Azimuth Distance (km) Brightness Sun altitude
Rises 06:42:38 0° 285° (WNW) 4,413 10.4 18.6°
Reaches altitude 10° 06:46:39 10° 273° (W) 2,947 9.5 19.6°
Maximum altitude 06:52:01 26° 218° (SW) 1,552 8.3 20.9°
Drops below altitude 10° 06:55:59 10° 159° (SSE) 2,140 9.5 21.8°
Sets 06:58:25 0° 145° (SE) 2,981 10.3 22.4°
